This is the latest recevied weather packets stored in our database for station/object OK0BH-6. If no packets are shown the sender has not sent any weather packets the latest 10 day(s).
| Time | Temp. | Humidity | Pressure | Rain* | Wind** | Luminosity | Snow |
|---|---|---|---|---|---|---|---|
| 1787757257 | 25.56° C | 43% | 1019.8 hPa | - | - | - | - |
| 1787756682 | 25° C | 43% | 1019.5 hPa | - | - | - | - |
| 1787756107 | 25° C | 43% | 1019.7 hPa | - | - | - | - |
| 1787755532 | 25° C | 43% | 1019.5 hPa | - | - | - | - |
| 1787754958 | 25.56° C | 43% | 1019.5 hPa | - | - | - | - |
| 1787754383 | 26.11° C | 43% | 1019.5 hPa | - | - | - | - |
| 1787753808 | 26.11° C | 43% | 1019.5 hPa | - | - | - | - |
| 1787753233 | 26.11° C | 43% | 1019.7 hPa | - | - | - | - |
| 1787752658 | 26.11° C | 43% | 1019.8 hPa | - | - | - | - |
| 1787752083 | 26.67° C | 43% | 1019.9 hPa | - | - | - | - |
| 1787751508 | 27.22° C | 43% | 1019.9 hPa | - | - | - | - |
| 1787750934 | 26.67° C | 44% | 1019.8 hPa | - | - | - | - |
| 1787750359 | 25.56° C | 44% | 1019.9 hPa | - | - | - | - |
| 1787749784 | 25.56° C | 44% | 1019.8 hPa | - | - | - | - |
| 1787749209 | 25° C | 45% | 1019.9 hPa | - | - | - | - |
| 1787748634 | 23.89° C | 45% | 1019.8 hPa | - | - | - | - |
| 1787748059 | 23.89° C | 45% | 1019.8 hPa | - | - | - | - |
| 1787747484 | 23.33° C | 46% | 1019.8 hPa | - | - | - | - |
| 1787746909 | 23.33° C | 46% | 1019.8 hPa | - | - | - | - |
| 1787746335 | 22.78° C | 46% | 1019.7 hPa | - | - | - | - |
| 1787745760 | 22.78° C | 46% | 1019.7 hPa | - | - | - | - |
| 1787745185 | 22.22° C | 47% | 1019.8 hPa | - | - | - | - |
| 1787744610 | 22.22° C | 47% | 1019.8 hPa | - | - | - | - |
| 1787744035 | 21.67° C | 47% | 1019.8 hPa | - | - | - | - |
| 1787743460 | 21.11° C | 47% | 1020.1 hPa | - | - | - | - |
* Rain since midnight (hover to see other rain measurements)
** Current wind speed in m/s (hover to see current wind gust speed)